Home   Weather   Phuket   Past weeks

Flag for Thailand Past Weather in Phuket, Thailand — Yesterday and Last 2 Weeks

Now
86 °F

Partly sunny.


Feels Like: 95 °F
Forecast: 79 / 85 °F
Wind: 14 mph from East

Location: Phuket Airport

Current Time: Dec 6, 2016 at 1:06:19 pm

Latest Report: Dec 6, 2016 at 12:30 pm


Visibility: 6 mi

Pressure: 29.80 "Hg

Humidity: 70%

Dew Point: 75 °F

Location of PhuketLocation

Past Weather in Phuket — Graph

°F

Phuket Temperature Yesterday

Maximum temperature yesterday: 84 °F (at 2:30 pm)
Minimum temperature yesterday: 77 °F (at 2:00 am)
Average temperature yesterday: 80 °F

High & Low Weather Summary for the Past Weeks

 TemperatureHumidityPressure
High91 °F (Nov 25, 3:00 pm)94% (Nov 22, 9:00 pm)29.98 "Hg (Nov 22, 9:00 pm)
Low73 °F (Nov 26, 8:30 pm)55% (Nov 24, 3:30 pm)29.68 "Hg (Nov 25, 2:30 pm)
Average81 °F80%29.83 "Hg
* Reported Nov 21 12:00 pm — Dec 6 12:00 pm, Phuket, Weather by CustomWeather, © 2016

Note: Actual official high and low records may vary slightly from our data, if they occured in-between our weather recording intervals... More about our weather records

Advertising

Phuket Weather History for the Previous 24 Hours

Scroll right to see more
 ConditionsComfort  
Time TempWeatherWind HumidityBarometerVisibility
12:00 pm
Tue, Dec 6
86 °FPartly sunny.12 mph70%29.80 "Hg6 mi
11:30 am84 °FPartly sunny.10 mph70%29.83 "Hg6 mi
11:00 am82 °FPartly sunny.7 mph79%29.83 "Hg6 mi
10:30 am81 °FPartly sunny.9 mph79%29.83 "Hg6 mi
10:00 am81 °FPartly sunny.12 mph79%29.83 "Hg6 mi
9:00 am81 °FPartly sunny.12 mph79%29.83 "Hg5 mi
8:30 am81 °FPartly sunny.15 mph79%29.83 "Hg5 mi
8:00 am81 °FPartly sunny.6 mph79%29.80 "Hg5 mi
7:30 am79 °FPartly sunny.5 mph84%29.80 "Hg5 mi
7:00 am79 °FPartly sunny.6 mph84%29.77 "Hg5 mi
6:30 am79 °FPartly sunny.7 mph84%29.77 "Hg5 mi
6:00 am79 °FPassing clouds.6 mph84%29.77 "Hg5 mi
5:30 am79 °FPassing clouds.8 mph84%29.74 "Hg5 mi
4:00 am79 °FPassing clouds.8 mph84%29.74 "Hg5 mi
3:00 am79 °FPassing clouds.7 mph79%29.74 "Hg5 mi
2:30 am79 °FPassing clouds.10 mph84%29.77 "Hg5 mi
2:00 am79 °FPassing clouds.7 mph84%29.77 "Hg5 mi
1:30 am79 °FPassing clouds.9 mph84%29.77 "Hg5 mi
1:00 am79 °FPassing clouds.10 mph84%29.80 "Hg5 mi
12:30 am79 °FWarm.7 mph84%29.80 "Hg5 mi
12:00 am79 °FPassing clouds.9 mph84%29.83 "Hg5 mi
11:30 pm
Mon, Dec 5
79 °FPassing clouds.5 mph84%29.83 "Hg5 mi
11:00 pm79 °FPassing clouds.7 mph84%29.83 "Hg5 mi
10:00 pm79 °FPassing clouds.8 mph79%29.83 "Hg5 mi
9:30 pm79 °FPassing clouds.7 mph84%29.83 "Hg5 mi
9:00 pm79 °FThunderstorms. Passing clouds.8 mph84%29.83 "Hg5 mi
8:30 pm79 °FThunderstorms. Passing clouds.7 mph84%29.80 "Hg5 mi
8:00 pm81 °FPassing clouds.8 mph79%29.80 "Hg5 mi
7:30 pm81 °FPassing clouds.9 mph79%29.77 "Hg5 mi
7:00 pm81 °FPassing clouds.7 mph79%29.74 "Hg6 mi
6:30 pm81 °FPassing clouds.8 mph79%29.74 "Hg6 mi
6:00 pm81 °FPartly sunny.9 mph79%29.71 "Hg6 mi
5:30 pm81 °FPartly sunny.6 mph79%29.71 "Hg6 mi
5:00 pm81 °FPartly sunny.8 mph79%29.71 "Hg6 mi
4:30 pm82 °FPartly sunny.14 mph74%29.71 "Hg6 mi
4:00 pm82 °FPartly sunny.16 mph74%29.71 "Hg6 mi
3:30 pm82 °FPartly sunny.18 mph74%29.68 "Hg6 mi
3:00 pm82 °FPartly sunny.15 mph74%29.68 "Hg6 mi
2:30 pm84 °FPartly sunny.16 mph74%29.68 "Hg6 mi
2:00 pm82 °FPartly sunny.16 mph79%29.71 "Hg5 mi
1:30 pm82 °FPartly sunny.10 mph79%29.74 "Hg5 mi
1:00 pm81 °FPartly sunny.8 mph84%29.77 "Hg5 mi
Weather by CustomWeather, © 2016

See weather overviewHow to use our weather pages